Regional Weather Roundup
Issued by NWS Green Bay, WI

Home | Current Version | Previous Version | Graphics & Text | Print | Product List | Glossary Off
Versions: 1 2 3 4 5 6 7 8 9 10 11 12 13 14 15 16 17 18 19 20 21 22 23 24 25 26 27 28 29 30 31 32 33 34 35 36 37 38 39 40 41 42 43 44 45 46 47 48 49 50

253
ASUS43 KGRB 220600
RWRGRB

NORTH-CENTRAL AND NORTHEAST WISCONSIN REGIONAL WEATHER ROUNDUP
NATIONAL WEATHER SERVICE GREEN BAY WI
1200 AM CST WED NOV 22 2017

WIZ005-009-010>012-018-019-220700-
NORTH CENTRAL WISCONSIN

CITY           SKY/WX    TMP DP  RH WIND       PRES   REMARKS
IRONWOOD       FLURRIES  20  15  81 W9        30.20R WCI   9
MANITOWISH WTR NOT AVBL
ARBOR VITAE    NOT AVBL
EAGLE RIVER    FLURRIES  19  13  77 NW6       30.14R
LAND O LAKES   NOT AVBL
RHINELANDER    CLOUDY    19  12  74 NW9       30.17R WCI   8
PHILLIPS       CLOUDY    16   9  74 NW3       30.21R
ANTIGO         NOT AVBL
TOMAHAWK       NOT AVBL
MERRILL        FLURRIES  19  10  69 N9        30.22R WCI   8
$$

WIZ013-073-220700-
NORTHEAST WISCONSIN

CITY           SKY/WX    TMP DP  RH WIND       PRES   REMARKS
IRON MOUNTAIN  CLOUDY    22  14  71 NW8       30.14R
MARINETTE      CLOUDY    24  14  65 NW6       30.20R
$$

WIZ017-030-035>037-045-220700-
CENTRAL WISCONSIN

CITY           SKY/WX    TMP DP  RH WIND       PRES   REMARKS
MEDFORD        NOT AVBL
WAUSAU         CLOUDY    20  11  68 NW7       30.20R
MOSINEE        NOT AVBL
MARSHFIELD     CLEAR     17   9  70 N9        30.21R WCI   6
WISC RAPIDS    CLEAR     18  10  71 N5        30.24R
STEVENS POINT  NOT AVBL
WAUPACA        NOT AVBL
SHAWANO        PTCLDY    22  13  68 W5        30.20R
CLINTONVILLE   NOT AVBL
WAUTOMA        CLEAR     18  11  74 W3        30.24R
$$

WIZ038-039-048-051-220700-
FOX VALLEY

CITY           SKY/WX    TMP DP  RH WIND       PRES   REMARKS
NWS GREEN BAY  CLOUDY    25  14  63 NW8       30.20R
APPLETON       NOT AVBL
OSHKOSH        CLEAR     20  11  68 W3        30.21R
FOND DU LAC    FLURRIES  19  10  68 NW6       30.21R
$$

WIZ022-050-052-220700-
EAST CENTRAL WISCONSIN

CITY           SKY/WX    TMP DP  RH WIND       PRES   REMARKS
EPHRAIM        NOT AVBL
WASHINGTON ISL NOT AVBL
STURGEON BAY   CLOUDY    25  13  60 NW17      30.19R
MANITOWOC      CLOUDY    25  13  60 NW12      30.21R
SHEBOYGAN      MIX PCPN  22  15  75 W5        30.20R
$$

LMZ563-521-522-541>543-220700-
LAKESHORE

STATION/POSITION TIME  TEMP    WIND        PRES    VSBY  WAVE
                       AIR SEA DIR/SP/G                  HT/PER
                 (UTC) (F)     (DEG/KT/KT) (MB)    (MI)  (FT/S)
SHEBOYGAN LKSHOR 0500   26     320/ 11/ 13 1023.0R
KEWAUNEE LKSHORE 0530   26     320/  5/ 10 1021.3R
NORTHPORT PIER   0540   27     310/ 18/ 25 1021.3R
N MID LAKE BUOY  0450   29 47  300/ 21/ 27 1020.6R         4/ 5
SISTER BAY LKSHO 0520          320/ 19/ 25   N/A
MENOMINEE LKSHOR 0530   26     300/  8/ 16 1021.7R
$$




USA.gov is the U.S. government's official web portal to all federal, state and local government web resources and services.